Location: Camposanto
(44.7833°N, 11.1333°E)
Time: 21:57:20
(UTC+00:00)

Daily predictions for brighter satellites

Satellite Brightness Start Highest point End
(mag) Time Altitude Azimuth Time Altitude Azimuth Time Altitude Azimuth
Cosmos 1809 Rocket 4.5 17:01:53 10° S 17:07:52 63° E 17:13:54 10° NNE
Cosmos 2333 Rocket 4.0 17:08:50 10° ESE 17:09:46 10° E 17:10:42 10° E
SL-4 R/B 2.4 17:05:36 10° WNW 17:09:58 76° SSW 17:14:35 10° SE
USA 267 3.6 17:03:56 10° E 17:10:14 51° NNE 17:16:32 10° NW
DMSP B5D2-2 4.2 17:05:10 10° NNE 17:10:22 56° E 17:15:31 10° S
Cosmos 1570 Rocket 4.4 17:06:42 10° N 17:11:42 42° ENE 17:16:39 10° SE
CZ-4C R/B 3.7 17:10:58 10° N 17:15:09 75° WNW 17:19:06 10° SSW
Cosmos 1674 Rocket 3.6 17:10:49 10° N 17:15:14 64° E 17:19:39 10° SSE
USA 290 4.0 17:17:20 10° SE 17:19:13 15° E 17:21:05 10° ENE
YAOGAN 1 3.4 17:15:43 10° SE 17:19:27 29° ENE 17:23:11 10° N
Cosmos 1766 3.2 17:21:24 10° S 17:25:16 64° E 17:29:12 10° NNE
Cosmos 1814 Rocket 4.0 17:21:27 10° NNW 17:26:43 81° ENE 17:31:52 10° SSE
SL-14 R/B 3.6 17:22:51 10° NNW 17:26:51 74° W 17:30:51 10° S
SKYMED 2 3.6 17:28:05 10° NNE 17:32:27 89° ESE 17:36:48 10° SSW
IRIDIUM 104 4.3 17:29:29 10° S 17:34:38 63° E 17:39:48 10° N
Okean O Rocket 2.2 17:32:28 10° SE 17:36:27 36° ENE 17:40:28 10° N
Spot 1 4.0 17:33:14 10° NNE 17:37:19 57° ESE 17:41:18 10° S
Cosmos 2322 Rocket 2.5 17:32:38 10° S 17:38:03 46° ESE 17:43:29 10° NE
Cosmos 1378 Rocket 3.9 17:35:28 10° NNW 17:39:49 70° W 17:44:06 10° S
Nadezhda 4 Rocket 4.0 17:34:51 10° S 17:41:09 76° E 17:47:27 10° N
Cosmos 1980 Rocket 3.8 17:37:13 10° WSW 17:42:20 35° NW 17:47:29 10° N
SKYMED 3 4.5 17:38:16 10° NNE 17:42:25 85° W 17:46:32 10° SSW
CZ-4 R/B 2.1 17:39:56 10° SE 17:43:44 36° ENE 17:47:34 10° N
IRIDIUM 114 4.3 17:38:33 10° S 17:43:45 77° E 17:48:59 10° N
Cosmos 2208 Rocket 4.1 17:38:59 10° NNW 17:44:21 63° ENE 17:49:45 10° SSE
Cosmos 1975 Rocket 3.8 17:41:05 10° N 17:45:00 31° ENE 17:48:52 10° SE
Cosmos 968 Rocket 3.5 17:41:12 10° SSW 17:46:28 84° ESE 17:51:43 10° NNE
Cosmos 2237 4.3 17:41:39 10° S 17:47:12 57° ESE 17:52:47 10° NNE
CZ-4B R/B 3.2 17:41:56 10° SSE 17:47:18 67° ENE 17:52:47 10° N
USA 186 3.8 17:47:46 14° ENE 17:47:46 14° ENE 17:49:17 10° NNE
Meteor 1-12 Rocket 4.4 17:43:22 10° S 17:49:23 85° E 17:55:26 10° NNE
Cosmos 1470 2.8 17:48:22 10° S 17:52:05 51° E 17:55:49 10° NNE
PSLV R/B 3.9 17:48:44 10° S 17:52:22 70° WSW 17:56:02 10° NNW
IRIDIUM 103 4.3 17:47:40 10° S 17:52:53 88° W 17:58:08 10° N
ARGOS Delta rocket 3.9 17:49:10 10° NNE 17:54:21 83° E 17:59:12 10° S
Cosmos 1844 Rocket 2.9 17:54:00 10° NNW 17:59:35 53° ENE 18:04:15 14° SE
Meteor 2-5 Rocket 3.6 17:54:18 10° N 17:59:50 70° ENE 18:05:22 10° SSE
Meteor 1-15 Rocket 4.2 17:54:58 10° S 18:00:32 90° E 18:06:09 10° N
Cosmos 2285 Rocket 4.4 17:55:04 10° NNW 18:01:24 70° WSW 18:07:44 10° S
HJ-1C 3.0 17:58:27 10° SSE 18:01:32 71° E 18:04:38 10° N
Cosmos 2084 Rocket 3.2 17:58:06 10° NW 18:01:58 89° SW 18:05:03 16° SE
COBE Rocket 3.9 17:58:41 10° S 18:03:29 83° WSW 18:08:13 10° NNW
IGS 5A 4.5 18:06:48 25° ENE 18:07:08 26° ENE 18:10:33 10° NNE
NOSS 3-3 (A) 4.0 18:01:53 10° S 18:07:08 48° ESE 18:13:08 10° NE
NOSS 3-3 (C) 4.0 18:02:00 10° S 18:07:15 48° ESE 18:13:12 10° NE
USA 81 4.2 18:02:08 10° N 18:07:17 50° E 18:12:23 10° SSE
SL-16 R/B 2.4 18:04:49 10° SSW 18:10:28 73° WNW 18:16:10 10° NNE
Aureole 1 Rocket 4.4 18:06:26 10° S 18:13:07 40° ESE 18:18:33 10° NE
Tiangong 0.3 18:14:37 10° S 18:15:15 12° S 18:15:15 12° S
USA 215 3.7 18:11:56 10° NE 18:18:23 62° NNW 18:24:47 10° WSW
BREEZE M DEB (TANK) 2.5 18:12:58 10° SW 18:20:00 66° SSE 18:20:58 43° E
Cosmos 1758 3.5 18:17:09 10° SSE 18:20:58 46° E 18:24:50 10° NNE
Cosmos 2278 Rocket 4.0 18:19:11 10° N 18:22:21 15° NE 18:22:57 15° NE
Lacrosse 4 Rocket 1.8 18:18:33 10° SW 18:22:36 64° WNW 18:26:47 10° NNE
Cosmos 1092 Rocket 4.0 18:19:41 10° S 18:25:59 87° W 18:32:17 10° N
Cosmos 2219 Rocket 2.8 18:21:04 10° SSE 18:25:51 33° ESE 18:25:51 33° ESE
Cosmos 1503 Rocket 4.1 18:26:30 10° S 18:31:26 48° ESE 18:36:25 10° NNE
Resurs 01 Rocket 3.6 18:33:50 15° NE 18:33:50 15° NE 18:35:04 10° NNE
SJ 16-02 2.1 18:31:01 10° S 18:33:46 34° SSE 18:33:46 34° SSE
Resurs 1-3 4.3 18:35:56 35° NE 18:35:56 35° NE 18:39:22 10° N
COSMOS 2455 3.0 18:30:17 10° S 18:36:02 49° ESE 18:39:52 21° NE
Cosmos 1300 Rocket 3.4 18:34:41 10° S 18:39:01 86° E 18:43:24 10° N
SJ-6B 3.0 18:40:48 50° NNE 18:40:48 50° NNE 18:43:57 10° N
CSL-04 Debris 4.0 18:40:03 31° SSE 18:42:39 71° ENE 18:48:02 10° N
Meteor 1-24 Rocket 4.2 18:37:30 10° NNW 18:42:44 58° W 18:48:03 10° S
DNEPR-1 R/B 4.5 18:38:25 10° SW 18:43:05 58° NW 18:48:47 10° NNE
Cosmos 1844 3.6 18:38:12 10° NNW 18:43:48 85° WSW 18:46:39 30° SSE
Cosmos 1025 Rocket 3.4 18:41:38 10° NNW 18:45:54 63° W 18:49:20 16° S
Landsat 7 4.1 18:48:45 46° NE 18:48:45 46° NE 18:52:46 10° N
Cosmos 2360 Rocket 2.3 18:45:05 10° SSW 18:50:43 74° WNW 18:56:24 10° NNE
Cosmos 2333 Rocket 2.1 18:47:15 10° SSW 18:52:59 74° ESE 18:58:45 10° NNE
Okean-O 2.5 18:53:19 69° NE 18:53:19 69° NE 18:57:32 10° N
USA 267 3.6 18:49:28 27° SSE 18:53:09 62° SW 18:59:40 10° NW
USA 290 4.2 18:50:27 10° SW 18:53:21 30° WNW 18:55:45 13° N
S3M 3.9 18:56:39 10° N 19:02:46 57° ENE 19:03:01 57° E
CSL-04 Rocket 3.6 19:03:55 47° S 19:05:32 84° WSW 19:11:01 10° NNW
IRS-1C Rocket 3.9 19:07:02 69° SSE 19:07:41 88° ENE 19:12:59 10° NNW
Okean O Rocket 3.9 19:09:22 10° SSW 19:12:52 23° W 19:16:24 10° NW
Meteor 1-21 Rocket 4.2 19:08:58 10° N 19:14:01 65° NE 19:14:01 65° NE
Cosmos 783 Rocket 4.5 19:10:12 10° NNW 19:15:05 76° N 19:15:05 76° N
Cosmos 773 Rocket 3.9 19:11:14 10° NNW 19:16:24 84° NNW 19:16:24 84° NNW
Cosmos 158 Rocket 4.5 19:12:24 10° NNW 19:15:56 45° N 19:15:56 45° N
Landsat 5 4.3 19:13:52 10° N 19:18:15 53° WNW 19:22:29 10° SSW
CZ-4 R/B 3.9 19:15:32 10° SW 19:18:45 21° W 19:21:58 10° NW
USA 186 4.3 19:20:55 22° NW 19:20:55 22° NW 19:22:29 10° NNW
Cosmos 1354 Rocket 4.1 19:15:20 10° SSW 19:24:03 22° NNE 19:25:50 10° NNE
Cosmos 1417 Rocket 4.4 19:15:44 10° N 19:21:53 86° W 19:22:56 64° S
Cosmos 2322 Rocket 3.9 19:17:15 10° WSW 19:22:16 31° NW 19:27:19 10° N
ATLAS 2AS CENTAUR R/B 3.9 19:31:58 10° NNW 19:38:04 28° NNE 19:38:07 28° NNE
Cosmos 1943 Rocket 4.3 19:40:38 10° N 19:42:12 15° NNE 19:42:12 15° NNE
NOSS 3-4 (A) 3.8 19:42:43 10° NW 19:49:31 84° N 19:49:31 84° N
NOSS 3-4 (C) 3.8 19:42:50 10° NW 19:49:37 84° N 19:49:37 84° N
Cosmos 2278 Rocket 3.6 20:01:49 10° NNW 20:04:47 32° NNW 20:04:47 32° NNW
Resurs 01 Rocket 4.2 20:11:24 17° NNW 20:11:24 17° NNW 20:12:27 10° NNW
Cosmos 2219 Rocket 3.7 20:04:31 10° SW 20:15:20 10° NNE 20:07:50 31° W
SJ 16-02 4.4 20:18:59 - N 20:18:59 - N 20:10:57 10° WSW
COSMOS 2455 4.2 20:16:43 10° WSW 20:22:09 34° NW 20:23:11 32° NNW
Cosmos 2333 Rocket 4.4 20:33:30 10° W 20:37:53 22° NW 20:42:16 10° N
